This is the latest recevied weather packets stored in our database for station/object KD4EED. If no packets are shown the sender has not sent any weather packets the latest 10 day(s).
| Time | Temp. | Humidity | Pressure | Rain* | Wind** | Luminosity | Snow |
|---|---|---|---|---|---|---|---|
| 1788111549 | 27.78° C | 57% | 1009.9 hPa | - | - | 483 W/m² | - |
| 1788111245 | 27.22° C | 57% | 1009.9 hPa | - | - | 481 W/m² | - |
| 1788110940 | 27.22° C | 58% | 1010 hPa | - | - | 291 W/m² | - |
| 1788110636 | 26.67° C | 58% | 1009.9 hPa | - | - | 83 W/m² | - |
| 1788110332 | 26.67° C | 58% | 1010 hPa | - | - | 103 W/m² | - |
| 1788110028 | 26.67° C | 60% | 1009.9 hPa | - | - | 95 W/m² | - |
| 1788109722 | 26.67° C | 62% | 1009.9 hPa | - | - | 79 W/m² | - |
| 1788109422 | 26.11° C | 62% | 1009.9 hPa | - | - | 70 W/m² | - |
| 1788109120 | 26.11° C | 64% | 1009.8 hPa | - | - | 75 W/m² | - |
| 1788108817 | 26.11° C | 65% | 1009.7 hPa | - | - | 91 W/m² | - |
| 1788108513 | 25.56° C | 67% | 1009.8 hPa | - | - | 83 W/m² | - |
| 1788108208 | 25.56° C | 68% | 1009.8 hPa | - | - | 75 W/m² | - |
| 1788107906 | 25.56° C | 70% | 1009.8 hPa | - | - | 60 W/m² | - |
| 1788107606 | 25° C | 71% | 1009.7 hPa | - | - | 53 W/m² | - |
| 1788107300 | 25° C | 72% | 1009.7 hPa | - | - | 48 W/m² | - |
| 1788106998 | 25° C | 74% | 1009.6 hPa | - | - | 50 W/m² | - |
| 1788106697 | 24.44° C | 75% | 1009.8 hPa | - | - | 51 W/m² | - |
| 1788106396 | 24.44° C | 76% | 1009.7 hPa | - | - | 51 W/m² | - |
| 1788106092 | 23.89° C | 77% | 1009.9 hPa | - | - | 49 W/m² | - |
| 1788105799 | 23.89° C | 77% | 1009.9 hPa | - | - | 47 W/m² | - |
| 1788105483 | 23.89° C | 78% | 1009.9 hPa | - | - | 46 W/m² | - |
| 1788105179 | 23.33° C | 79% | 1009.7 hPa | - | - | 46 W/m² | - |
| 1788104879 | 23.33° C | 79% | 1009.8 hPa | - | - | 47 W/m² | - |
| 1788104575 | 22.78° C | 81% | 1009.8 hPa | - | - | 50 W/m² | - |
| 1788104271 | 22.78° C | 82% | 1009.8 hPa | - | - | 47 W/m² | - |
* Rain since midnight (hover to see other rain measurements)
** Current wind speed in m/s (hover to see current wind gust speed)